This is the latest recevied weather packets stored in our database for station/object WA2TQI. If no packets are shown the sender has not sent any weather packets the latest 10 day(s).
| Time | Temp. | Humidity | Pressure | Rain* | Wind** | Luminosity | Snow |
|---|---|---|---|---|---|---|---|
| 1778188330 | 18.33° C | 43% | 1009 hPa | 0 mm | - | - | - |
| 1778188028 | 18.33° C | 44% | 1008.7 hPa | 0 mm | - | - | - |
| 1778187724 | 18.33° C | 44% | 1008.9 hPa | 0 mm | - | - | - |
| 1778187421 | 18.33° C | 44% | 1009 hPa | 0 mm | - | - | - |
| 1778187118 | 18.33° C | 43% | 1008.7 hPa | 0 mm | - | - | - |
| 1778186814 | 18.33° C | 43% | 1008.8 hPa | 0 mm | - | - | - |
| 1778186512 | 18.33° C | 43% | 1008.8 hPa | 0 mm | - | - | - |
| 1778186210 | 18.89° C | 44% | 1008.8 hPa | 0 mm | - | - | - |
| 1778185907 | 18.33° C | 44% | 1008.9 hPa | 0 mm | - | - | - |
| 1778185602 | 18.89° C | 42% | 1008.9 hPa | 0 mm | - | - | - |
| 1778185298 | 19.44° C | 44% | 1008.8 hPa | 0 mm | - | - | - |
| 1778184993 | 19.44° C | 44% | 1008.8 hPa | 0 mm | - | - | - |
| 1778184691 | 18.33° C | 43% | 1009 hPa | 0 mm | - | - | - |
| 1778184387 | 18.89° C | 42% | 1009.1 hPa | 0 mm | - | - | - |
| 1778184083 | 18.89° C | 44% | 1009 hPa | 0 mm | - | - | - |
| 1778183780 | 18.89° C | 42% | 1009.2 hPa | 0 mm | - | - | - |
| 1778183477 | 18.89° C | 42% | 1009.2 hPa | 0 mm | - | - | - |
| 1778183174 | 18.33° C | 45% | 1009.2 hPa | 0 mm | - | - | - |
| 1778182869 | 18.89° C | 44% | 1009.3 hPa | 0 mm | - | - | - |
| 1778182567 | 18.89° C | 42% | 1009.3 hPa | 0 mm | - | - | - |
| 1778182263 | 18.33° C | 43% | 1009.4 hPa | 0 mm | - | - | - |
| 1778181960 | 18.33° C | 42% | 1009.6 hPa | 0 mm | - | - | - |
| 1778181657 | 18.89° C | 42% | 1009.6 hPa | 0 mm | - | - | - |
| 1778181352 | 18.89° C | 42% | 1009.7 hPa | 0 mm | - | - | - |
| 1778181049 | 18.89° C | 43% | 1009.8 hPa | 0 mm | - | - | - |
* Rain latest hour (hover to see other rain measurements)
** Current wind speed in m/s (hover to see current wind gust speed)